Location: Boncourt
(49.6160°N, 3.9448°E)
Time: 18:29:47
(UTC+00:00)

CZ-4 R/B - Pass Details

Date: 09 February 2023
Orbit: 526 x 587 km, 97.7° (Epoch: 26 March)

Event Time Altitude Azimuth Distance (km) Brightness Sun altitude
Rises 17:51:54 0° 136° (SE) 2,779 4.6 -10.0°
Reaches altitude 10° 17:54:16 10° 125° (SE) 1,875 3.6 -10.4°
Maximum altitude 17:57:44 28° 66° (ENE) 1,078 2.2 -10.9°
Drops below altitude 10° 18:01:11 10° 7° (N) 1,855 3.8 -11.5°
Sets 18:03:30 0° 356° (N) 2,744 4.8 -11.9°
